| time (UTC) | temp F | wind direction | speed knots | gust knots | rain 1hr in | rain 24hr in | rain mn in | humidity % | barometer mb |
| 20260906115308 | 72 | 141 | 4.3 | 10.4 | 0.00 | 0.00 | 0.00 | 60 | 1024.9 |
| 20260906115251 | 72 | 109 | 3.5 | 10.4 | 0.00 | 0.00 | 0.00 | 60 | 1024.9 |
| 20260906114311 | 73 | 67 | 3.5 | 10.4 | 0.00 | 0.00 | 0.00 | 60 | 1024.9 |
| 20260906113804 | 72 | 116 | 3.5 | 10.4 | 0.00 | 0.00 | 0.00 | 63 | 1025.0 |
| 20260906113307 | 72 | 154 | 3.5 | 8.7 | 0.00 | 0.00 | 0.00 | 59 | 1025.0 |
| 20260906112804 | 72 | 147 | 3.5 | 8.7 | 0.00 | 0.00 | 0.00 | 62 | 1025.1 |
| 20260906112307 | 72 | 153 | 3.5 | 8.7 | 0.00 | 0.00 | 0.00 | 63 | 1025.1 |
| 20260906111808 | 72 | 162 | 3.5 | 7.8 | 0.00 | 0.00 | 0.00 | 61 | 1025.3 |
| 20260906111307 | 71 | 115 | 4.3 | 7.8 | 0.00 | 0.00 | 0.00 | 62 | 1025.3 |
| 20260906110807 | 72 | 178 | 4.3 | 10.4 | 0.00 | 0.00 | 0.00 | 59 | 1025.3 |
| 20260906110316 | 72 | 183 | 4.3 | 10.4 | 0.00 | 0.00 | 0.00 | 60 | 1025.3 |
| 20260906105803 | 71 | 171 | 3.5 | 8.7 | 0.00 | 0.00 | 0.00 | 65 | 1025.4 |
| 20260906105744 | 71 | 119 | 2.6 | 8.7 | 0.00 | 0.00 | 0.00 | 62 | 1025.4 |
| 20260906104804 | 70 | 157 | 3.5 | 7.8 | 0.00 | 0.00 | 0.00 | 65 | 1025.5 |
| 20260906104307 | 69 | 105 | 3.5 | 8.7 | 0.00 | 0.00 | 0.00 | 67 | 1025.6 |
| 20260906103804 | 70 | 103 | 2.6 | 8.7 | 0.00 | 0.00 | 0.00 | 65 | 1025.6 |
| 20260906103749 | 70 | 178 | 2.6 | 7.8 | 0.00 | 0.00 | 0.00 | 67 | 1025.8 |
| 20260906102808 | 70 | 133 | 3.5 | 7.0 | 0.00 | 0.00 | 0.00 | 65 | 1025.9 |
| 20260906102306 | 70 | 110 | 3.5 | 7.8 | 0.00 | 0.00 | 0.00 | 66 | 1026.0 |
| 20260906101806 | 70 | 90 | 3.5 | 7.8 | 0.00 | 0.00 | 0.00 | 66 | 1026.0 |
| 20260906101309 | 71 | 112 | 3.5 | 7.8 | 0.00 | 0.00 | 0.00 | 69 | 1026.1 |
| 20260906100807 | 69 | 91 | 3.5 | 7.8 | 0.00 | 0.00 | 0.00 | 67 | 1026.2 |
| 20260906100305 | 69 | 158 | 3.5 | 7.8 | 0.00 | 0.00 | 0.00 | 69 | 1026.3 |
| 20260906095809 | 68 | 75 | 2.6 | 7.0 | 0.00 | 0.00 | 0.00 | 70 | 1026.5 |
| 20260906095740 | 68 | 116 | 2.6 | 6.1 | 0.00 | 0.00 | 0.00 | 71 | 1026.4 |
| 20260906094804 | 68 | 172 | 3.5 | 8.7 | 0.00 | 0.00 | 0.00 | 71 | 1026.4 |
| 20260906094304 | 68 | 114 | 3.5 | 9.6 | 0.00 | 0.00 | 0.00 | 70 | 1026.4 |
| 20260906094250 | 68 | 161 | 4.3 | 10.4 | 0.00 | 0.00 | 0.00 | 70 | 1026.4 |
| 20260906093305 | 68 | 100 | 3.5 | 10.4 | 0.00 | 0.00 | 0.00 | 72 | 1026.5 |
| 20260906092802 | 68 | 191 | 2.6 | 9.6 | 0.00 | 0.00 | 0.00 | 70 | 1026.5 |
| 20260906092306 | 68 | 98 | 2.6 | 8.7 | 0.00 | 0.00 | 0.00 | 71 | 1026.6 |
| 20260906091804 | 68 | 140 | 3.5 | 8.7 | 0.00 | 0.00 | 0.00 | 72 | 1026.6 |
| 20260906091305 | 68 | 171 | 3.5 | 7.8 | 0.00 | 0.00 | 0.00 | 71 | 1026.6 |
| 20260906090803 | 68 | 121 | 3.5 | 7.8 | 0.00 | 0.00 | 0.00 | 74 | 1026.8 |
| 20260906090308 | 68 | 124 | 2.6 | 7.8 | 0.00 | 0.00 | 0.00 | 73 | 1026.8 |
| 20260906085804 | 68 | 110 | 1.7 | 6.1 | 0.00 | 0.00 | 0.00 | 73 | 1026.9 |
| 20260906085307 | 67 | 150 | 1.7 | 6.1 | 0.00 | 0.00 | 0.00 | 74 | 1026.8 |
| 20260906085253 | 67 | 165 | 1.7 | 6.1 | 0.00 | 0.00 | 0.00 | 75 | 1026.9 |
| 20260906084303 | 67 | 136 | 1.7 | 6.1 | 0.00 | 0.00 | 0.00 | 75 | 1026.9 |
| 20260906083806 | 66 | 124 | 1.7 | 7.0 | 0.00 | 0.00 | 0.00 | 76 | 1026.9 |
| 20260906083725 | 65 | 158 | 2.6 | 6.1 | 0.00 | 0.00 | 0.00 | 77 | 1026.9 |
| 20260906083504 | 66 | 152 | 2.6 | 7.0 | 0.00 | 0.00 | 0.00 | 76 | 1026.9 |
| 20260906082306 | 65 | 164 | 2.6 | 6.1 | 0.00 | 0.00 | 0.00 | 77 | 1026.9 |
| 20260906081805 | 65 | 119 | 2.6 | 6.1 | 0.00 | 0.00 | 0.00 | 78 | 1026.8 |
| 20260906081306 | 64 | 157 | 2.6 | 6.1 | 0.00 | 0.00 | 0.00 | 79 | 1026.7 |
| 20260906080803 | 64 | 139 | 2.6 | 8.7 | 0.00 | 0.00 | 0.00 | 79 | 1026.8 |
| 20260906080306 | 64 | 164 | 2.6 | 8.7 | 0.00 | 0.00 | 0.00 | 79 | 1026.7 |
| 20260906075804 | 64 | 129 | 1.7 | 5.2 | 0.00 | 0.00 | 0.00 | 82 | 1026.7 |
| 20260906075306 | 63 | 140 | 2.6 | 7.0 | 0.00 | 0.00 | 0.00 | 83 | 1026.8 |
| 20260906075247 | 62 | 146 | 2.6 | 7.8 | 0.00 | 0.00 | 0.00 | 82 | 1027.0 |
| 20260906074302 | 62 | 113 | 2.6 | 7.8 | 0.00 | 0.00 | 0.00 | 84 | 1027.1 |
| 20260906073803 | 62 | 171 | 2.6 | 5.2 | 0.00 | 0.00 | 0.00 | 86 | 1027.0 |
| 20260906073302 | 62 | 155 | 1.7 | 4.3 | 0.00 | 0.00 | 0.00 | 88 | 1026.9 |
| 20260906072806 | 61 | 139 | 1.7 | 5.2 | 0.00 | 0.00 | 0.00 | 89 | 1026.9 |
| 20260906072306 | 60 | 131 | 1.7 | 5.2 | 0.00 | 0.00 | 0.00 | 91 | 1027.0 |
| 20260906071802 | 60 | 143 | 1.7 | 5.2 | 0.00 | 0.00 | 0.00 | 92 | 1027.0 |
| 20260906071743 | 60 | 146 | 1.7 | 5.2 | 0.00 | 0.00 | 0.00 | 93 | 1026.9 |
| 20260906071256 | 59 | 156 | 0.9 | 3.5 | 0.00 | 0.00 | 0.00 | 94 | 1026.9 |
| 20260906070739 | 58 | 148 | 0.9 | 1.7 | 0.00 | 0.00 | 0.00 | 95 | 1027.0 |
| 20260906065802 | 58 | 152 | 0.0 | 1.7 | 0.00 | 0.00 | 0.00 | 96 | 1027.1 |
| 20260906065305 | 57 | 152 | 0.9 | 3.5 | 0.00 | 0.00 | 0.00 | 96 | 1027.0 |
| 20260906064804 | 56 | 154 | 0.0 | 3.5 | 0.00 | 0.00 | 0.00 | 96 | 1027.1 |
| 20260906064304 | 56 | 158 | 0.0 | 2.6 | 0.00 | 0.00 | 0.00 | 96 | 1027.0 |
| 20260906064255 | 56 | 158 | 1.7 | 3.5 | 0.00 | 0.00 | 0.00 | 96 | 1027.0 |
| 20260906063743 | 56 | 156 | 0.9 | 3.5 | 0.00 | 0.00 | 0.00 | 96 | 1027.0 |
| 20260906062804 | 56 | 166 | 0.9 | 3.5 | 0.00 | 0.00 | 0.00 | 96 | 1026.9 |
| 20260906062305 | 56 | 143 | 0.9 | 3.5 | 0.00 | 0.00 | 0.00 | 96 | 1026.9 |
| 20260906061804 | 56 | 164 | 0.9 | 3.5 | 0.00 | 0.00 | 0.00 | 96 | 1026.8 |
| 20260906061306 | 56 | 130 | 0.9 | 3.5 | 0.00 | 0.00 | 0.00 | 97 | 1026.8 |
| 20260906060804 | 56 | 129 | 0.9 | 3.5 | 0.00 | 0.00 | 0.00 | 97 | 1026.7 |
| 20260906060304 | 55 | 163 | 0.9 | 3.5 | 0.00 | 0.00 | 0.00 | 97 | 1026.8 |
| 20260906055804 | 55 | 171 | 1.7 | 4.3 | 0.00 | 0.00 | 0.00 | 97 | 1026.7 |
| 20260906055306 | 55 | 162 | 1.7 | 4.3 | 0.00 | 0.00 | 0.00 | 97 | 1026.7 |
| 20260906054802 | 55 | 165 | 0.9 | 2.6 | 0.00 | 0.00 | 0.00 | 97 | 1026.8 |
| 20260906054306 | 54 | 158 | 0.0 | 1.7 | 0.00 | 0.00 | 0.00 | 97 | 1026.8 |
| 20260906053805 | 53 | 158 | 0.0 | 0.9 | 0.00 | 0.00 | 0.00 | 97 | 1026.7 |
| 20260906053304 | 53 | 158 | 0.0 | 1.7 | 0.00 | 0.00 | 0.00 | 97 | 1026.6 |
| 20260906052803 | 53 | 158 | 0.9 | 2.6 | 0.00 | 0.00 | 0.00 | 96 | 1026.8 |
| 20260906052306 | 53 | 158 | 0.9 | 3.5 | 0.00 | 0.00 | 0.00 | 96 | 1026.8 |
| 20260906051803 | 53 | 167 | 1.7 | 3.5 | 0.00 | 0.00 | 0.00 | 96 | 1026.8 |
| 20260906051306 | 53 | 164 | 0.9 | 2.6 | 0.00 | 0.00 | 0.00 | 96 | 1026.8 |
| 20260906051255 | 53 | 154 | 0.9 | 2.6 | 0.00 | 0.00 | 0.00 | 96 | 1026.8 |
| 20260906050317 | 52 | 154 | 0.9 | 4.3 | 0.00 | 0.00 | 0.00 | 96 | 1026.7 |
| 20260906045806 | 52 | 175 | 1.7 | 4.3 | 0.00 | 0.00 | 0.00 | 96 | 1026.6 |
| 20260906045306 | 52 | 166 | 0.9 | 3.5 | 0.00 | 0.00 | 0.00 | 96 | 1026.6 |
| 20260906045239 | 52 | 170 | 0.0 | 1.7 | 0.00 | 0.00 | 0.00 | 96 | 1026.6 |
| 20260906045007 | 52 | 158 | 0.9 | 3.5 | 0.00 | 0.00 | 0.00 | 96 | 1026.6 |
| 20260906044243 | 52 | 170 | 0.0 | 0.9 | 0.00 | 0.00 | 0.00 | 96 | 1026.6 |
| 20260906043306 | 52 | 170 | 0.0 | 1.7 | 0.00 | 0.00 | 0.00 | 96 | 1026.8 |
| 20260906042804 | 52 | 170 | 0.0 | 1.7 | 0.00 | 0.00 | 0.00 | 96 | 1026.8 |
| 20260906042302 | 52 | 170 | 0.9 | 2.6 | 0.00 | 0.00 | 0.00 | 96 | 1026.8 |
| 20260906041806 | 52 | 175 | 0.0 | 2.6 | 0.00 | 0.00 | 0.00 | 96 | 1026.8 |
| 20260906041304 | 53 | 163 | 0.0 | 0.9 | 0.00 | 0.00 | 0.00 | 96 | 1026.8 |
| 20260906040802 | 53 | 163 | 0.0 | 0.9 | 0.00 | 0.00 | 0.00 | 96 | 1026.9 |
| 20260906040302 | 53 | 164 | 0.9 | 1.7 | 0.00 | 0.00 | 0.00 | 96 | 1026.9 |
| 20260906035802 | 53 | 164 | 0.9 | 2.6 | 0.00 | 0.00 | 0.00 | 96 | 1027.0 |
| 20260906035306 | 53 | 165 | 0.9 | 2.6 | 0.00 | 0.00 | 0.00 | 96 | 1027.0 |
| 20260906034802 | 53 | 165 | 0.9 | 2.6 | 0.00 | 0.00 | 0.00 | 96 | 1026.9 |
| 20260906034750 | 53 | 165 | 0.9 | 2.6 | 0.00 | 0.00 | 0.00 | 96 | 1027.1 |
| 20260906033806 | 53 | 165 | 0.9 | 3.5 | 0.00 | 0.00 | 0.00 | 95 | 1027.1 |
| 20260906033747 | 53 | 164 | 0.9 | 3.5 | 0.00 | 0.00 | 0.00 | 96 | 1027.1 |
| 20260906032805 | 53 | 170 | 0.9 | 2.6 | 0.00 | 0.00 | 0.00 | 96 | 1027.2 |
| 20260906032306 | 53 | 170 | 1.7 | 2.6 | 0.00 | 0.00 | 0.00 | 96 | 1027.3 |
| 20260906031805 | 53 | 175 | 1.7 | 2.6 | 0.00 | 0.00 | 0.00 | 96 | 1027.2 |
| 20260906031302 | 53 | 175 | 0.9 | 2.6 | 0.00 | 0.00 | 0.00 | 95 | 1027.1 |
| 20260906030803 | 53 | 175 | 0.9 | 2.6 | 0.00 | 0.00 | 0.00 | 95 | 1027.2 |
| 20260906030304 | 53 | 175 | 0.0 | 0.9 | 0.00 | 0.00 | 0.00 | 95 | 1026.9 |
| 20260906030249 | 53 | 175 | 0.0 | 0.9 | 0.00 | 0.00 | 0.00 | 95 | 1026.9 |
| 20260906025306 | 53 | 175 | 0.0 | 0.9 | 0.00 | 0.00 | 0.00 | 95 | 1027.1 |
| 20260906024804 | 53 | 175 | 0.0 | 0.9 | 0.00 | 0.00 | 0.00 | 95 | 1027.2 |
| 20260906024305 | 53 | 175 | 0.0 | 0.9 | 0.00 | 0.00 | 0.00 | 95 | 1027.2 |
| 20260906024243 | 54 | 175 | 0.0 | 0.9 | 0.00 | 0.00 | 0.00 | 95 | 1027.3 |
| 20260906023304 | 54 | 175 | 0.0 | 0.9 | 0.00 | 0.00 | 0.00 | 96 | 1027.4 |
| 20260906022805 | 53 | 176 | 0.0 | 0.9 | 0.00 | 0.00 | 0.00 | 95 | 1027.5 |
| 20260906022306 | 53 | 175 | 0.0 | 0.9 | 0.00 | 0.00 | 0.00 | 95 | 1027.4 |
| 20260906021802 | 54 | 175 | 0.9 | 1.7 | 0.00 | 0.00 | 0.00 | 95 | 1027.6 |
| 20260906021302 | 54 | 175 | 0.9 | 2.6 | 0.00 | 0.00 | 0.00 | 95 | 1027.6 |
| 20260906020801 | 54 | 187 | 0.9 | 2.6 | 0.00 | 0.00 | 0.00 | 95 | 1027.6 |
| 20260906020302 | 54 | 179 | 0.9 | 3.5 | 0.00 | 0.00 | 0.00 | 95 | 1027.9 |
| 20260906015802 | 54 | 167 | 0.9 | 3.5 | 0.00 | 0.00 | 0.00 | 95 | 1027.8 |
| 20260906015305 | 54 | 187 | 0.9 | 2.6 | 0.00 | 0.00 | 0.00 | 95 | 1027.7 |
| 20260906014802 | 54 | 175 | 0.9 | 2.6 | 0.00 | 0.00 | 0.00 | 95 | 1027.7 |
| 20260906014303 | 54 | 175 | 0.0 | 1.7 | 0.00 | 0.00 | 0.00 | 95 | 1027.5 |
| 20260906013805 | 54 | 175 | 0.9 | 1.7 | 0.00 | 0.00 | 0.00 | 95 | 1027.5 |
| 20260906013744 | 54 | 174 | 0.0 | 1.7 | 0.00 | 0.00 | 0.00 | 95 | 1027.3 |
| 20260906013249 | 54 | 175 | 0.0 | 1.7 | 0.00 | 0.00 | 0.00 | 95 | 1027.3 |
| 20260906012306 | 54 | 175 | 0.0 | 1.7 | 0.00 | 0.00 | 0.00 | 95 | 1027.3 |
| 20260906011802 | 54 | 175 | 0.9 | 1.7 | 0.00 | 0.00 | 0.00 | 95 | 1027.2 |
| 20260906011305 | 54 | 175 | 0.9 | 1.7 | 0.00 | 0.00 | 0.00 | 94 | 1027.3 |
| 20260906010802 | 54 | 175 | 0.0 | 0.9 | 0.00 | 0.00 | 0.00 | 95 | 1027.3 |
| 20260906010721 | 54 | 175 | 0.0 | 0.9 | 0.00 | 0.00 | 0.00 | 95 | 1027.3 |
| 20260906005803 | 54 | 175 | 0.0 | 0.9 | 0.00 | 0.00 | 0.00 | 94 | 1027.4 |
| 20260906005306 | 54 | 175 | 0.0 | 2.6 | 0.00 | 0.00 | 0.00 | 94 | 1027.5 |
| 20260906004803 | 54 | 175 | 0.0 | 2.6 | 0.00 | 0.00 | 0.00 | 94 | 1027.5 |
| 20260906004305 | 54 | 170 | 0.0 | 0.9 | 0.00 | 0.00 | 0.00 | 94 | 1027.5 |
| 20260906003803 | 54 | 170 | 0.9 | 2.6 | 0.00 | 0.00 | 0.00 | 94 | 1027.4 |
| 20260906003723 | 54 | 170 | 0.9 | 2.6 | 0.00 | 0.00 | 0.00 | 94 | 1027.4 |
| 20260906002803 | 54 | 160 | 0.9 | 2.6 | 0.00 | 0.00 | 0.00 | 94 | 1027.5 |
| 20260906002306 | 54 | 159 | 0.9 | 3.5 | 0.00 | 0.00 | 0.00 | 94 | 1027.4 |
| 20260906001805 | 54 | 171 | 0.0 | 3.5 | 0.00 | 0.00 | 0.00 | 94 | 1027.4 |
| 20260906001745 | 54 | 203 | 0.9 | 1.7 | 0.00 | 0.00 | 0.00 | 94 | 1027.4 |
| 20260906000803 | 54 | 203 | 0.9 | 1.7 | 0.00 | 0.00 | 0.00 | 94 | 1027.4 |
| 20260906000303 | 55 | 203 | 0.0 | 0.9 | 0.00 | 0.00 | 0.00 | 94 | 1027.3 |
| 20260905235803 | 55 | 203 | 0.0 | 1.7 | 0.00 | 0.00 | 0.00 | 94 | 1027.3 |
| 20260905235306 | 54 | 203 | 0.9 | 1.7 | 0.00 | 0.00 | 0.00 | 93 | 1027.4 |
| 20260905234804 | 54 | 203 | 0.0 | 1.7 | 0.00 | 0.00 | 0.00 | 93 | 1027.3 |
| 20260905234306 | 54 | 203 | 0.0 | 0.9 | 0.00 | 0.00 | 0.00 | 93 | 1027.3 |
| 20260905234241 | 54 | 203 | 0.0 | 0.9 | 0.00 | 0.00 | 0.00 | 93 | 1027.2 |
| 20260905233303 | 55 | 202 | 0.0 | 0.9 | 0.00 | 0.00 | 0.00 | 93 | 1027.2 |
| 20260905232803 | 55 | 203 | 0.0 | 0.9 | 0.00 | 0.00 | 0.00 | 93 | 1027.3 |
| 20260905232306 | 55 | 203 | 0.9 | 1.7 | 0.00 | 0.00 | 0.00 | 93 | 1027.2 |
| 20260905231804 | 55 | 202 | 0.9 | 1.7 | 0.00 | 0.00 | 0.00 | 93 | 1027.2 |
| 20260905231306 | 55 | 203 | 0.9 | 1.7 | 0.00 | 0.00 | 0.00 | 93 | 1027.2 |
| 20260905230804 | 55 | 203 | 0.9 | 1.7 | 0.00 | 0.00 | 0.00 | 93 | 1027.2 |
| 20260905230317 | 55 | 203 | 0.0 | 1.7 | 0.00 | 0.00 | 0.00 | 93 | 1027.2 |
| 20260905225802 | 55 | 203 | 0.0 | 0.9 | 0.00 | 0.00 | 0.00 | 92 | 1027.2 |
| 20260905225305 | 55 | 203 | 0.9 | 0.9 | 0.00 | 0.00 | 0.00 | 92 | 1027.2 |
| 20260905224806 | 55 | 203 | 0.0 | 0.9 | 0.00 | 0.00 | 0.00 | 92 | 1027.1 |
| 20260905224303 | 55 | 203 | 0.0 | 0.0 | 0.00 | 0.00 | 0.00 | 92 | 1027.2 |
| 20260905223803 | 55 | 203 | 0.0 | 0.0 | 0.00 | 0.00 | 0.00 | 92 | 1027.2 |
| 20260905223302 | 55 | 202 | 0.0 | 0.9 | 0.00 | 0.00 | 0.00 | 92 | 1027.2 |
| 20260905223251 | 55 | 203 | 0.0 | 0.9 | 0.00 | 0.00 | 0.00 | 92 | 1027.3 |
| 20260905222306 | 55 | 203 | 0.9 | 0.9 | 0.00 | 0.00 | 0.00 | 91 | 1027.1 |
| 20260905221804 | 55 | 203 | 0.0 | 0.9 | 0.00 | 0.00 | 0.00 | 91 | 1027.1 |
| 20260905221302 | 55 | 202 | 0.0 | 0.9 | 0.00 | 0.00 | 0.00 | 91 | 1027.1 |
| 20260905220803 | 56 | 203 | 0.0 | 1.7 | 0.00 | 0.00 | 0.00 | 91 | 1027.0 |
| 20260905220303 | 56 | 203 | 0.9 | 1.7 | 0.00 | 0.00 | 0.00 | 91 | 1027.1 |
| 20260905215802 | 56 | 203 | 0.9 | 1.7 | 0.00 | 0.00 | 0.00 | 91 | 1027.1 |
| 20260905215305 | 56 | 204 | 0.9 | 1.7 | 0.00 | 0.00 | 0.00 | 91 | 1027.0 |
| 20260905214802 | 56 | 199 | 0.0 | 1.7 | 0.00 | 0.00 | 0.00 | 91 | 1027.1 |
| 20260905214306 | 56 | 199 | 0.9 | 0.9 | 0.00 | 0.00 | 0.00 | 90 | 1027.0 |
| 20260905213804 | 56 | 199 | 0.0 | 0.9 | 0.00 | 0.00 | 0.00 | 90 | 1026.9 |
| 20260905213738 | 56 | 199 | 0.0 | 0.9 | 0.00 | 0.00 | 0.00 | 90 | 1027.0 |
| 20260905212804 | 56 | 199 | 0.9 | 1.7 | 0.00 | 0.00 | 0.00 | 90 | 1027.0 |
| 20260905212306 | 57 | 199 | 1.7 | 2.6 | 0.00 | 0.00 | 0.00 | 90 | 1026.8 |
| 20260905211803 | 56 | 188 | 0.9 | 2.6 | 0.00 | 0.00 | 0.00 | 90 | 1026.8 |
| 20260905211305 | 56 | 325 | 0.0 | 1.7 | 0.00 | 0.00 | 0.00 | 90 | 1026.8 |
| 20260905210802 | 56 | 325 | 0.0 | 1.7 | 0.00 | 0.00 | 0.00 | 89 | 1026.8 |
| 20260905210728 | 56 | 325 | 0.0 | 1.7 | 0.00 | 0.00 | 0.00 | 89 | 1026.7 |
| 20260905205801 | 56 | 325 | 0.0 | 0.9 | 0.00 | 0.00 | 0.00 | 88 | 1026.7 |
| 20260905205301 | 57 | 325 | 0.0 | 0.9 | 0.00 | 0.00 | 0.00 | 88 | 1026.8 |
| 20260905204757 | 57 | 325 | 0.0 | 0.9 | 0.00 | 0.00 | 0.00 | 88 | 1026.7 |
| 20260905204255 | 57 | 325 | 0.9 | 1.7 | 0.00 | 0.00 | 0.00 | 88 | 1026.7 |
| 20260905204233 | 57 | 325 | 0.9 | 2.6 | 0.00 | 0.00 | 0.00 | 88 | 1026.7 |
| 20260905203256 | 57 | 325 | 0.9 | 2.6 | 0.00 | 0.00 | 0.00 | 87 | 1026.7 |
| 20260905203157 | 58 | 258 | 0.9 | 1.7 | 0.00 | 0.00 | 0.00 | 87 | 1026.7 |
| 20260905202953 | 58 | 258 | 0.9 | 1.7 | 0.00 | 0.00 | 0.00 | 87 | 1026.6 |
| 20260905202236 | 58 | 258 | 0.0 | 1.7 | 0.00 | 0.00 | 0.00 | 86 | 1026.7 |
| 20260905201252 | 58 | 258 | 0.0 | 0.9 | 0.00 | 0.00 | 0.00 | 86 | 1026.6 |
| 20260905200752 | 58 | 258 | 0.0 | 0.9 | 0.00 | 0.00 | 0.00 | 85 | 1026.5 |
| 20260905200253 | 58 | 258 | 0.0 | 0.9 | 0.00 | 0.00 | 0.00 | 84 | 1026.5 |
| 20260905195751 | 59 | 258 | 0.0 | 0.9 | 0.00 | 0.00 | 0.00 | 84 | 1026.6 |
| 20260905195248 | 59 | 258 | 0.0 | 0.9 | 0.00 | 0.00 | 0.00 | 84 | 1026.5 |
| 20260905194749 | 59 | 258 | 0.0 | 0.9 | 0.00 | 0.00 | 0.00 | 83 | 1026.5 |
| 20260905194247 | 59 | 258 | 0.0 | 0.9 | 0.00 | 0.00 | 0.00 | 82 | 1026.5 |
| 20260905193749 | 60 | 258 | 0.0 | 0.9 | 0.00 | 0.00 | 0.00 | 82 | 1026.5 |
| 20260905193249 | 60 | 258 | 0.0 | 0.9 | 0.00 | 0.00 | 0.00 | 82 | 1026.5 |
| 20260905192748 | 60 | 258 | 0.0 | 0.9 | 0.00 | 0.00 | 0.00 | 81 | 1026.3 |
| 20260905192244 | 60 | 258 | 0.0 | 0.9 | 0.00 | 0.00 | 0.00 | 80 | 1026.3 |
| 20260905191744 | 60 | 258 | 0.0 | 0.9 | 0.00 | 0.00 | 0.00 | 79 | 1026.2 |
| 20260905191243 | 61 | 258 | 0.0 | 0.9 | 0.00 | 0.00 | 0.00 | 78 | 1026.4 |
| 20260905191218 | 61 | 258 | 0.0 | 0.9 | 0.00 | 0.00 | 0.00 | 77 | 1026.3 |
| 20260905190243 | 61 | 258 | 0.0 | 0.0 | 0.00 | 0.00 | 0.00 | 76 | 1026.1 |
| 20260905185742 | 62 | 258 | 0.0 | 1.7 | 0.00 | 0.00 | 0.00 | 76 | 1026.3 |
| 20260905185240 | 62 | 258 | 0.9 | 2.6 | 0.00 | 0.00 | 0.00 | 76 | 1026.2 |
| 20260905184739 | 62 | 258 | 0.9 | 2.6 | 0.00 | 0.00 | 0.00 | 75 | 1026.1 |
| 20260905184717 | 63 | 258 | 0.9 | 2.6 | 0.00 | 0.00 | 0.00 | 75 | 1026.1 |
| 20260905184226 | 64 | 253 | 1.7 | 2.6 | 0.00 | 0.00 | 0.00 | 74 | 1025.9 |
| 20260905183950 | 63 | 258 | 0.9 | 2.6 | 0.00 | 0.00 | 0.00 | 74 | 1026.1 |
| 20260905182738 | 64 | 243 | 1.7 | 3.5 | 0.00 | 0.00 | 0.00 | 73 | 1025.8 |
| 20260905182239 | 64 | 237 | 2.6 | 5.2 | 0.00 | 0.00 | 0.00 | 73 | 1025.9 |
| 20260905181737 | 64 | 239 | 2.6 | 6.1 | 0.00 | 0.00 | 0.00 | 73 | 1025.8 |
| 20260905181241 | 64 | 270 | 3.5 | 6.1 | 0.00 | 0.00 | 0.00 | 72 | 1025.9 |
| 20260905180738 | 65 | 240 | 3.5 | 7.0 | 0.00 | 0.00 | 0.00 | 72 | 1025.9 |
| 20260905180238 | 65 | 254 | 3.5 | 7.0 | 0.00 | 0.00 | 0.00 | 72 | 1025.9 |
| 20260905175740 | 65 | 243 | 3.5 | 7.8 | 0.00 | 0.00 | 0.00 | 72 | 1025.8 |
| 20260905175239 | 65 | 247 | 3.5 | 7.8 | 0.00 | 0.00 | 0.00 | 72 | 1025.8 |
| 20260905174740 | 65 | 280 | 3.5 | 7.0 | 0.00 | 0.00 | 0.00 | 72 | 1025.9 |
| 20260905174237 | 65 | 253 | 4.3 | 7.0 | 0.00 | 0.00 | 0.00 | 72 | 1025.8 |
| 20260905173738 | 65 | 260 | 3.5 | 7.0 | 0.00 | 0.00 | 0.00 | 72 | 1025.7 |
| 20260905173715 | 65 | 264 | 3.5 | 7.0 | 0.00 | 0.00 | 0.00 | 72 | 1025.8 |
| 20260905172749 | 65 | 254 | 4.3 | 8.7 | 0.00 | 0.00 | 0.00 | 71 | 1025.8 |
| 20260905172738 | 65 | 269 | 4.3 | 7.8 | 0.00 | 0.00 | 0.00 | 71 | 1025.8 |
| 20260905171740 | 65 | 261 | 3.5 | 8.7 | 0.00 | 0.00 | 0.00 | 70 | 1025.7 |
| 20260905171239 | 65 | 258 | 2.6 | 7.0 | 0.00 | 0.00 | 0.00 | 70 | 1025.7 |
| 20260905170741 | 65 | 262 | 3.5 | 7.8 | 0.00 | 0.00 | 0.00 | 70 | 1025.6 |
| 20260905170238 | 65 | 229 | 4.3 | 10.4 | 0.00 | 0.00 | 0.00 | 69 | 1025.6 |
| 20260905165737 | 65 | 287 | 4.3 | 10.4 | 0.00 | 0.00 | 0.00 | 69 | 1025.5 |
| 20260905165236 | 65 | 249 | 4.3 | 10.4 | 0.00 | 0.00 | 0.00 | 69 | 1025.6 |
| 20260905164735 | 65 | 269 | 4.3 | 7.8 | 0.00 | 0.00 | 0.00 | 68 | 1025.5 |
| 20260905164730 | 65 | 264 | 5.2 | 10.4 | 0.00 | 0.00 | 0.00 | 68 | 1025.5 |
| 20260905163738 | 65 | 230 | 6.1 | 12.2 | 0.00 | 0.00 | 0.00 | 68 | 1025.5 |
| 20260905163237 | 65 | 283 | 5.2 | 12.2 | 0.00 | 0.00 | 0.00 | 68 | 1025.4 |
| 20260905162741 | 65 | 245 | 4.3 | 8.7 | 0.00 | 0.00 | 0.00 | 68 | 1025.3 |
| 20260905162236 | 66 | 245 | 5.2 | 9.6 | 0.00 | 0.00 | 0.00 | 68 | 1025.3 |
| 20260905162215 | 65 | 241 | 7.0 | 10.4 | 0.00 | 0.00 | 0.00 | 67 | 1025.3 |
| 20260905161240 | 65 | 247 | 6.1 | 10.4 | 0.00 | 0.00 | 0.00 | 67 | 1025.3 |
| 20260905160737 | 65 | 227 | 6.1 | 10.4 | 0.00 | 0.00 | 0.00 | 67 | 1025.3 |
| 20260905160236 | 66 | 275 | 6.1 | 11.3 | 0.00 | 0.00 | 0.00 | 67 | 1025.2 |
| 20260905155738 | 66 | 245 | 6.1 | 11.3 | 0.00 | 0.00 | 0.00 | 67 | 1025.2 |
| 20260905155721 | 66 | 265 | 6.1 | 11.3 | 0.00 | 0.00 | 0.00 | 66 | 1025.1 |
| 20260905154737 | 66 | 225 | 6.1 | 13.9 | 0.00 | 0.00 | 0.00 | 66 | 1024.9 |
| 20260905154234 | 66 | 268 | 7.0 | 13.9 | 0.00 | 0.00 | 0.00 | 66 | 1024.8 |
| 20260905153735 | 66 | 247 | 6.1 | 11.3 | 0.00 | 0.00 | 0.00 | 67 | 1024.7 |
| 20260905153233 | 66 | 260 | 7.0 | 13.0 | 0.00 | 0.00 | 0.00 | 67 | 1024.8 |
| 20260905152733 | 66 | 259 | 7.0 | 13.0 | 0.00 | 0.00 | 0.00 | 67 | 1024.7 |
| 20260905152238 | 66 | 252 | 6.1 | 13.0 | 0.00 | 0.00 | 0.00 | 66 | 1024.7 |
| 20260905151738 | 66 | 265 | 6.1 | 13.9 | 0.00 | 0.00 | 0.00 | 67 | 1024.7 |
| 20260905151235 | 66 | 316 | 7.0 | 13.9 | 0.00 | 0.00 | 0.00 | 67 | 1024.7 |
| 20260905150730 | 66 | 260 | 7.0 | 15.6 | 0.00 | 0.00 | 0.00 | 67 | 1024.6 |
| 20260905150234 | 66 | 243 | 7.0 | 15.6 | 0.00 | 0.00 | 0.00 | 66 | 1024.5 |
| 20260905145732 | 66 | 261 | 6.1 | 13.9 | 0.00 | 0.00 | 0.00 | 67 | 1024.6 |
| 20260905145234 | 66 | 285 | 7.0 | 14.8 | 0.00 | 0.00 | 0.00 | 67 | 1024.5 |
| 20260905144735 | 67 | 239 | 7.0 | 14.8 | 0.00 | 0.00 | 0.00 | 65 | 1024.4 |
| 20260905144233 | 67 | 274 | 6.1 | 13.0 | 0.00 | 0.00 | 0.00 | 66 | 1024.4 |
| 20260905143732 | 66 | 266 | 7.0 | 13.9 | 0.00 | 0.00 | 0.00 | 68 | 1024.4 |
| 20260905143708 | 66 | 257 | 7.0 | 13.9 | 0.00 | 0.00 | 0.00 | 68 | 1024.3 |
| 20260905142735 | 66 | 260 | 7.0 | 13.9 | 0.00 | 0.00 | 0.00 | 69 | 1024.2 |
| 20260905142233 | 66 | 246 | 7.0 | 13.9 | 0.00 | 0.00 | 0.00 | 69 | 1024.3 |
| 20260905141732 | 66 | 250 | 7.0 | 15.6 | 0.00 | 0.00 | 0.00 | 69 | 1024.2 |
| 20260905141232 | 66 | 241 | 7.8 | 15.6 | 0.00 | 0.00 | 0.00 | 68 | 1024.2 |
| 20260905140731 | 67 | 234 | 7.0 | 13.9 | 0.00 | 0.00 | 0.00 | 68 | 1024.1 |
| 20260905140235 | 67 | 256 | 7.0 | 13.9 | 0.00 | 0.00 | 0.00 | 68 | 1024.1 |
| 20260905135730 | 67 | 268 | 6.1 | 12.2 | 0.00 | 0.00 | 0.00 | 66 | 1024.1 |
| 20260905135233 | 68 | 279 | 6.1 | 13.9 | 0.00 | 0.00 | 0.00 | 64 | 1024.1 |
| 20260905134821 | 69 | 281 | 7.0 | 13.9 | 0.00 | 0.00 | 0.00 | 65 | 1024.0 |
| 20260905134433 | 67 | 239 | 7.8 | 16.5 | 0.00 | 0.00 | 0.00 | 68 | 1023.7 |
| 20260905134423 | 67 | 292 | 7.8 | 16.5 | 0.00 | 0.00 | 0.00 | 67 | 1023.7 |
| 20260905134412 | 68 | 262 | 7.0 | 12.2 | 0.00 | 0.00 | 0.00 | 67 | 1023.7 |
| 20260905134313 | 69 | 267 | 7.0 | 13.0 | 0.00 | 0.00 | 0.00 | 66 | 1023.9 |
| 20260905133758 | 68 | 235 | 7.0 | 15.6 | 0.00 | 0.00 | 0.00 | 67 | 1023.8 |
| 20260905133442 | 67 | 276 | 7.0 | 15.6 | 0.00 | 0.00 | 0.00 | 68 | 1023.8 |
| 20260905130931 | 68 | 268 | 7.0 | 13.9 | 0.00 | 0.00 | 0.00 | 69 | 1023.6 |
| 20260905130756 | 68 | 279 | 7.0 | 13.9 | 0.00 | 0.00 | 0.00 | 67 | 1023.6 |
| 20260905125732 | 67 | 280 | 7.0 | 14.8 | 0.00 | 0.00 | 0.00 | 69 | 1023.6 |
| 20260905125227 | 68 | 245 | 7.0 | 14.8 | 0.00 | 0.00 | 0.00 | 68 | 1023.5 |
| 20260905124728 | 69 | 282 | 7.0 | 12.2 | 0.00 | 0.00 | 0.00 | 66 | 1023.5 |
| 20260905124223 | 69 | 241 | 7.0 | 14.8 | 0.00 | 0.00 | 0.00 | 67 | 1023.4 |
| 20260905123728 | 69 | 274 | 7.0 | 16.5 | 0.00 | 0.00 | 0.00 | 65 | 1023.5 |
| 20260905123319 | 70 | 310 | 7.8 | 16.5 | 0.00 | 0.00 | 0.00 | 65 | 1023.3 |
| 20260905123239 | 70 | 251 | 8.7 | 16.5 | 0.00 | 0.00 | 0.00 | 65 | 1023.3 |
| 20260905122227 | 70 | 222 | 7.8 | 14.8 | 0.00 | 0.00 | 0.00 | 63 | 1023.2 |
| 20260905121727 | 69 | 242 | 8.7 | 14.8 | 0.00 | 0.00 | 0.00 | 64 | 1023.1 |
| 20260905121311 | 69 | 236 | 10.4 | 20.9 | 0.00 | 0.01 | 0.00 | 63 | 1023.1 |
| 20260905121240 | 69 | 217 | 9.6 | 16.5 | 0.00 | 0.01 | 0.00 | 64 | 1023.1 |
| 20260905120225 | 69 | 230 | 9.6 | 20.9 | 0.00 | 0.01 | 0.00 | 65 | 1023.1 |